Weather History for York, PA

Change the Weather History Date:

Friday, November 8, 2013

  Actual Average Record
Temperature  
Mean Temperature 39 °F -  
Max Temperature 46 °F 57 °F 70 °F (2011)
Min Temperature 32 °F 46 °F 24 °F (2007)
Degree Days  
Heating Degree Days 26    
Moisture  
Dew Point 25 °F    
Average Humidity 58    
Maximum Humidity 73    
Minimum Humidity 40    
Precipitation  
Precipitation 0.00 in - - ()
Sea Level Pressure  
Sea Level Pressure 30.18 in    
Wind  
Wind Speed 5 mph (West)    
Max Wind Speed 23 mph    
Max Gust Speed 32 mph    
Visibility 10 miles    
Events      
Averages and records for this station are not official NWS values.
T = Trace of Precipitation, MM = Missing Value Source: NWS Daily Summary

Daily Weather History Graph

Daily Weather History Graph

Search for Another Location

Airport:

Trip Planner

Search our weather history database for the weather conditions in past years. The results will help you decide how hot, cold, wet, or windy it might be!

Date:

Astronomy

Nov. 08, 2013 Rise Set
Actual Time 6:44 AM EST 4:57 PM EST
Civil Twilight 6:16 AM EST 5:25 PM EST
Nautical Twilight 5:43 AM EST 5:58 PM EST
Astronomical Twilight 5:12 AM EST 6:29 PM EST
Moon 11:38 AM EST (11/8) 10:15 PM EST (11/8)
Length of Visible Light 11h 09m
Length of Day
10h 12m
Waxing Crescent, 33% of the Moon is Illuminated
Nov 8
Waxing Crescent
Nov 10
First Quarter
Nov 17
Full
Nov 25
Last Quarter
Dec 2
New

Hourly Weather History & Observations

Time (EST) Temp. Windchill Dew Point Humidity Pressure Visibility Wind Dir Wind Speed Gust Speed Precip Events Conditions
12:53 AM 37.0 °F 34.5 °F 21.9 °F 54% 30.08 in 10.0 mi WSW 3.5 mph - N/A   Clear
1:53 AM 33.1 °F 30.0 °F 24.1 °F 70% 30.08 in 10.0 mi WSW 3.5 mph - N/A   Clear
2:53 AM 39.0 °F - 26.1 °F 60% 30.08 in 10.0 mi Calm Calm - N/A   Overcast
3:53 AM 35.1 °F - 26.1 °F 70% 30.08 in 10.0 mi Calm Calm - N/A   Partly Cloudy
4:53 AM 34.0 °F - 26.1 °F 73% 30.09 in 10.0 mi Calm Calm - N/A   Clear
5:53 AM 37.0 °F 34.5 °F 26.1 °F 65% 30.09 in 10.0 mi WSW 3.5 mph - N/A   Clear
6:53 AM 37.9 °F 34.4 °F 27.0 °F 65% 30.11 in 10.0 mi West 4.6 mph - N/A   Overcast
7:53 AM 42.1 °F 38.4 °F 28.0 °F 58% 30.13 in 10.0 mi WSW 5.8 mph - N/A   Partly Cloudy
8:53 AM 44.1 °F 40.8 °F 28.9 °F 55% 30.15 in 10.0 mi WNW 5.8 mph - N/A   Overcast
9:53 AM 44.1 °F 35.2 °F 27.0 °F 51% 30.16 in 10.0 mi WNW 23.0 mph 32.2 mph N/A   Overcast
10:53 AM 44.1 °F 37.4 °F 28.0 °F 53% 30.18 in 10.0 mi WNW 13.8 mph 25.3 mph N/A   Mostly Cloudy
11:53 AM 46.9 °F - 27.0 °F 46% 30.17 in 10.0 mi WNW 19.6 mph 25.3 mph N/A   Partly Cloudy
12:53 PM 45.0 °F 38.9 °F 24.1 °F 44% 30.17 in 10.0 mi NW 12.7 mph 24.2 mph N/A   Overcast
1:53 PM 45.0 °F 40.6 °F 25.0 °F 46% 30.19 in 10.0 mi WNW 8.1 mph - N/A   Overcast
2:53 PM 46.0 °F 40.2 °F 23.0 °F 40% 30.19 in 10.0 mi WNW 12.7 mph 20.7 mph N/A   Overcast
3:53 PM 46.0 °F 41.4 °F 24.1 °F 42% 30.20 in 10.0 mi NW 9.2 mph - N/A   Mostly Cloudy
4:53 PM - - - N/A% 30.20 in - North - - N/A   Unknown
5:53 PM 36.0 °F 32.1 °F 26.1 °F 67% 30.25 in 10.0 mi West 4.6 mph - N/A   Unknown
6:53 PM 39.0 °F 36.8 °F 25.0 °F 57% 30.27 in 10.0 mi West 3.5 mph - N/A   Mostly Cloudy
7:53 PM 37.9 °F 35.5 °F 24.1 °F 57% 30.28 in 10.0 mi West 3.5 mph - N/A   Clear
8:53 PM 37.0 °F 34.5 °F 24.1 °F 59% 30.29 in 10.0 mi WSW 3.5 mph - N/A   Clear
9:53 PM 33.1 °F 26.9 °F 24.1 °F 70% 30.30 in 10.0 mi WNW 6.9 mph - N/A   Clear
10:53 PM 32.0 °F 28.7 °F 23.0 °F 69% 30.31 in 10.0 mi West 3.5 mph - N/A   Clear
11:53 PM 32.0 °F - 23.0 °F 69% 30.31 in 10.0 mi Calm Calm - N/A   Clear